Location: B�retswil
(47.3376°N, 8.8534°E)
Time: 06:01:34
(UTC+00:00)

USA 234 - Pass Details

Date: 03 March 2021
Orbit: 1102 x 1105 km, 123.0° (Epoch: 08 April)

Event Time Altitude Azimuth Distance (km) Brightness Sun altitude
Exits shadow 21:27:17 39° 309° (NW) 1,589 4.3 -40.7°
Drops below altitude 10° 21:31:54 10° 274° (W) 2,962 5.9 -41.3°
Sets 21:34:29 0° 268° (W) 3,919 6.6 -41.5°
